Torna al catalogo

CZ-3B DEB

AttivoGTO
NORAD 40164·DEBRIS·🇨🇳 China

Lanciato Sep 4, 2010 da Xichang Satellite Launch Center

Loading…

TLE

In scadenzaSource: Space-Track

Epoca: Sep 14, 2026, 12:31 UTC

1 40164U 10042R   26257.52188850  .00000027  00000-0  00000-0 0  9990
2 40164  26.1171 213.8995 7329246  58.6981  18.8152  1.89873074 88965

Traccia CZ-3B DEB in tempo reale con AllMySat

Download on the App Store